Dewpoint
13 5 5 9 11 13 15 11 10 13 13 13 13 13 13 12 11 8 4 11 12 8 10 10 9 7 10 12 11 10 10 9 9 10 8 -1 -8 -8 -4 -1 -3 -5 -2
11 4 3 13 12 12 12 13 12 12 13 12 12 11 9 10 8 5 7 12 12 5 6 -1 -2 7 9 10 10 10 10 9 9 7 2 -7 -7 -4 -2 -2 -2 -4 -1
12 4 4 11 10 14 11 12 12 11 11 12 10 10 7 6 2 4 10 13 13 11 8 -2 -7 -3 1 6 8 8 7 7 6 3 2 0 -1 -1 -0 0 0 1 -2
11 4 4 9 9 10 11 12 12 13 12 11 9 6 2 -0 12 12 11 13 13 10 6 -7 -10 -9 -8 -3 1 4 5 3 2 4 3 2 1 6 3 3 3 6 11
9 5 6 7 13 10 11 13 13 13 13 11 9 -1 -6 -4 13 13 13 13 13 11 5 -6 -5 -6 -6 -7 -4 -1 3 4 6 6 4 3 -1 7 9 10 11 12 12
10 8 8 12 15 11 12 13 13 13 13 13 6 -7 -12 -9 12 11 11 11 11 10 -3 -2 -1 -1 -1 -1 0 4 6 7 5 5 6 -0 -3 7 10 10 11 12 11
11 10 15 14 13 13 13 14 14 14 13 11 4 -10 -12 -11 -10 5 7 6 4 -1 -3 0 0 0 1 1 2 4 4 5 5 5 2 -1 -3 -2 8 10 11 11 11
12 10 9 13 11 14 14 14 13 13 12 7 3 -9 -10 -10 -9 -5 -2 1 -2 -4 0 1 -1 -1 -1 -0 0 1 3 5 3 1 -1 -1 -5 -4 5 8 6 6 7
13 12 12 9 5 13 13 12 14 14 12 4 2 -7 -9 -9 -8 -4 -1 -1 -3 -1 2 -0 -1 -1 -1 -1 -1 -1 1 2 -0 -2 -3 -4 3 6 9 8 8 8 8
14 14 13 12 3 8 10 9 13 13 12 5 -2 -7 -7 -7 -7 -5 -4 -4 -2 2 2 1 0 -0 -0 -1 -1 -2 -2 -3 -4 -4 -2 -2 5 9 10 9 10 6 4
14 13 11 6 3 2 5 4 11 12 11 8 2 -4 -8 -7 -6 -5 -4 -3 -1 3 4 2 1 1 1 1 -0 -2 -3 -3 -4 -4 -1 2 8 10 10 10 10 7 6
14 13 10 5 1 0 1 2 3 6 9 7 4 1 -5 -6 -5 -4 -3 -0 1 3 6 4 2 2 2 2 2 -1 -2 -2 -3 -2 -1 3 8 10 9 11 8 0 1
14 13 13 12 11 4 1 0 1 2 4 6 6 4 3 -3 -4 -3 -1 0 2 2 5 6 4 1 2 2 3 2 1 0 -1 -1 -0 0 4 6 2 -2 1 -0 -4
14 13 13 13 12 11 9 8 5 2 2 5 5 6 5 3 -1 -0 0 0 1 1 2 3 3 3 2 2 2 2 3 2 1 -1 -0 1 1 3 2 -3 -6 -8 -8
14 13 13 13 12 11 11 10 10 9 4 5 8 7 9 9 5 5 7 8 9 7 7 3 1 2 2 2 2 2 2 3 2 1 0 1 1 2 1 -1 -7 -8 -10
14 13 12 12 12 11 11 12 11 10 11 11 11 11 10 10 10 10 10 10 11 11 10 10 8 7 7 7 4 3 3 2 3 3 2 2 1 2 1 0 -5 -10 -11
9 9 12 13 12 11 11 11 12 12 12 12 12 13 12 11 10 10 11 11 12 12 11 11 11 10 9 9 10 8 5 2 2 3 3 2 2 2 1 1 -3 -8 -11
11 12 12 12 12 12 12 12 12 12 11 13 13 13 13 13 12 11 11 10 11 12 12 11 10 11 11 10 10 10 8 5 3 2 3 3 2 2 1 -0 -2 -7 -10
4 7 9 12 13 13 12 12 12 12 12 12 13 13 13 13 12 12 11 11 11 12 12 11 11 11 11 10 11 11 10 9 6 4 3 3 3 2 2 1 -1 -5 -9
-1 3 7 9 7 8 12 12 12 12 13 13 13 12 13 13 13 13 12 12 11 12 12 11 11 11 11 11 11 11 11 9 9 6 4 3 3 3 2 2 -0 -3 -7
-3 -3 3 3 2 3 7 10 10 10 10 10 11 11 10 10 11 11 11 11 12 12 12 11 11 11 10 10 10 11 10 9 9 10 6 4 3 3 3 2 1 -1 -5
-3 -2 -1 0 1 1 2 4 6 8 8 11 10 11 11 11 11 11 10 10 10 11 12 11 11 11 10 9 11 10 10 9 9 9 8 6 5 3 3 3 2 0 -2
-2 -2 -2 -2 -1 -1 -0 0 1 2 2 4 6 6 7 7 8 10 9 10 11 10 10 10 10 11 10 9 9 9 9 8 8 7 7 6 5 4 3 3 3 1 -1
-3 -3 -4 -4 -4 -4 -3 -2 -1 -1 0 1 1 2 2 2 2 3 5 7 7 8 10 10 10 10 11 11 10 10 10 10 8 6 6 6 5 3 2 2 2 2 -0
-3 -4 -6 -6 -5 -5 -4 -4 -4 -3 -3 -3 -2 -1 -1 -1 -1 0 4 7 8 8 7 10 9 10 10 10 9 10 11 10 10 9 7 6 6 5 4 3 1 1 -0
-0 -1 -3 -3 -3 -3 -4 -5 -5 -5 -5 -5 -4 -4 -4 -4 -4 -2 1 5 7 10 9 9 9 10 10 10 10 10 10 9 9 8 7 7 6 5 4 4 2 1 -0
Wind_Speed
15 18 19 19 18 17 16 14 13 12 10 9 6 4 3 4 5 6 10 12 12 10 8 9 8 9 10 10 9 9 9 6 3 1 3 5 5 7 9 9 10 10 9
20 20 20 20 19 17 17 16 14 12 11 6 7 5 4 5 6 8 13 13 10 11 11 8 7 8 10 10 9 8 7 6 3 2 4 7 7 7 8 10 9 10 9
17 22 22 21 19 18 16 16 14 12 8 7 7 3 3 6 9 11 13 12 8 8 8 8 8 8 9 8 8 8 7 5 3 6 8 9 8 8 8 9 10 11 11
17 23 23 22 19 18 16 15 14 12 10 8 4 3 5 9 14 12 12 12 8 6 7 9 11 12 12 12 12 10 8 6 7 10 9 9 7 8 7 8 9 10 9
19 21 23 22 19 18 17 16 14 12 9 8 3 5 7 13 15 15 14 11 7 4 6 9 11 13 13 14 13 11 8 4 5 6 7 8 7 9 8 8 11 11 11
20 21 23 23 21 19 18 17 14 12 10 6 6 7 10 13 14 13 12 9 6 4 7 9 10 11 12 12 12 10 8 4 6 5 4 5 5 8 9 7 8 8 6
21 21 21 21 21 21 21 18 15 13 9 7 7 9 11 11 11 11 9 8 7 7 8 8 9 9 10 10 9 8 5 4 4 3 2 3 2 4 6 5 5 6 4
15 19 17 18 25 23 21 19 16 13 10 9 6 7 9 12 13 11 10 8 8 9 8 8 8 8 8 8 7 6 4 2 1 2 2 2 3 1 4 5 6 5 3
12 13 14 14 18 24 23 19 17 15 10 10 7 8 7 6 9 11 12 11 10 9 8 7 7 7 7 7 6 4 3 2 1 1 2 4 1 1 4 4 4 2 2
11 8 11 14 17 22 20 17 17 16 12 9 7 6 7 9 8 7 8 8 9 9 7 7 7 7 6 6 5 4 4 4 3 3 3 1 0 5 3 2 3 1 2
12 8 10 13 14 17 19 16 16 15 13 10 9 8 7 7 8 9 8 8 7 6 7 5 5 6 6 6 6 5 5 6 5 4 3 2 1 5 7 6 5 3 6
14 11 10 11 12 14 15 15 14 14 14 10 10 9 9 9 9 8 9 9 9 8 8 7 6 6 6 6 6 6 7 8 7 6 5 4 5 7 7 7 6 7 9
15 14 12 10 9 10 12 13 14 13 13 11 10 9 10 10 12 11 11 10 10 10 10 10 9 9 9 9 9 9 9 11 10 9 8 8 8 12 10 10 11 11 10
16 15 14 12 10 9 11 10 10 12 13 12 10 8 9 11 13 11 10 10 11 12 13 13 13 13 13 12 12 12 11 13 14 12 12 10 10 13 15 12 12 12 10
20 16 15 16 14 12 12 11 9 9 13 11 10 9 10 10 12 12 12 11 9 12 12 15 15 16 15 14 14 15 14 15 16 16 15 15 14 13 15 16 14 13 11
23 23 18 17 16 15 13 12 12 11 10 11 9 8 11 12 12 12 12 13 13 14 15 15 13 15 17 16 17 16 17 17 18 19 19 18 17 17 16 17 18 15 12
15 13 24 24 21 20 18 17 16 14 14 14 12 11 12 13 14 15 16 16 17 17 17 19 18 18 18 19 20 19 20 20 20 21 22 22 20 20 18 18 19 17 15
7 9 11 15 26 26 24 21 20 18 18 17 15 17 16 16 16 18 19 20 20 21 22 22 21 22 21 25 23 22 22 23 23 23 24 25 24 22 21 20 20 20 18
12 12 12 14 15 16 18 21 21 21 24 22 21 20 22 20 19 20 21 23 25 25 26 27 26 26 27 28 30 27 26 26 26 26 27 28 28 27 24 22 22 22 21
13 15 16 15 14 14 15 17 18 19 24 28 27 26 26 24 24 25 26 25 25 28 30 31 32 30 30 30 32 31 31 30 30 31 31 30 30 30 29 26 24 25 24
18 17 17 17 18 19 21 21 21 22 21 23 27 25 24 28 29 28 29 30 30 32 33 34 34 35 33 33 34 33 34 33 36 37 35 34 34 34 33 31 28 26 26
20 18 17 16 16 15 17 21 24 26 26 27 26 27 27 28 28 31 32 32 31 34 36 35 37 39 36 35 38 39 32 35 41 40 40 39 38 37 36 35 33 30 28
16 17 19 20 20 21 21 20 21 22 23 25 26 28 29 28 28 28 28 28 32 36 37 36 37 39 38 37 37 35 16 23 29 32 31 34 37 39 39 38 36 34 31
11 13 14 19 21 22 24 26 26 26 27 27 27 29 31 32 32 30 28 24 24 25 28 32 36 38 40 41 38 40 41 43 26 23 23 25 31 38 39 39 39 36 34
10 10 11 11 11 12 14 16 18 20 24 27 29 32 34 34 33 30 26 22 22 24 25 25 25 26 34 34 38 38 39 44 49 46 38 30 32 28 32 38 40 38 36
10 9 9 11 12 13 15 16 17 18 18 19 20 20 21 22 24 24 24 25 21 22 23 20 23 21 24 27 30 33 38 35 37 43 42 42 41 40 31 35 40 40 37
Wind_Direction
168 167 156 158 155 149 144 140 133 128 128 127 125 129 151 113 98 96 115 109 98 107 119 97 98 121 129 131 122 118 113 116 103 5 2 17 45 61 63 63 72 80 95
156 165 161 159 155 148 146 141 132 128 129 124 124 123 96 111 109 119 127 120 110 93 79 69 84 124 138 138 133 130 133 131 134 93 72 76 72 74 71 75 76 78 92
172 164 164 162 155 152 147 141 139 134 131 134 139 94 84 115 115 124 129 130 128 96 70 60 85 110 125 144 145 137 137 135 128 104 96 86 80 78 77 80 77 74 76
181 165 166 168 161 154 152 150 144 139 144 140 122 92 117 122 119 123 132 137 143 98 67 75 91 103 111 122 136 142 136 129 105 103 84 71 84 75 76 81 81 80 68
175 167 166 165 157 157 156 158 156 150 160 169 133 116 126 136 131 136 143 149 143 113 76 94 100 105 112 122 131 133 130 136 98 85 59 52 73 86 82 87 92 97 92
175 168 160 161 165 159 159 162 158 165 171 181 154 134 135 145 151 151 152 150 149 124 103 106 106 110 117 126 134 136 133 136 87 77 44 48 85 108 101 117 124 128 132
172 175 161 164 169 165 161 166 171 183 187 170 158 147 144 147 152 159 158 151 140 130 121 117 114 118 122 130 137 140 140 126 110 79 46 39 78 134 157 171 183 190 188
178 178 181 173 173 172 169 171 177 182 196 179 156 152 156 158 158 160 163 157 145 140 136 129 122 122 128 137 146 146 139 131 46 31 6 6 356 164 178 211 235 253 258
169 176 186 200 188 178 182 174 180 190 200 185 164 157 156 164 169 164 165 162 158 155 147 137 132 133 137 143 156 162 160 220 323 331 323 328 341 92 153 210 254 259 300
168 192 214 207 192 184 188 186 181 192 205 189 178 171 169 166 170 173 173 173 170 167 159 155 150 149 153 155 171 183 198 256 294 308 319 351 157 128 173 217 244 227 311
173 185 198 196 191 184 190 192 190 195 207 209 191 185 191 189 187 182 184 188 192 187 187 183 179 178 176 179 189 208 234 256 276 282 294 305 152 175 196 202 212 261 298
184 171 157 174 187 187 190 199 202 203 210 217 209 204 203 201 203 203 205 204 211 211 216 220 218 219 220 222 226 232 248 262 268 275 281 266 208 204 214 214 236 282 293
188 185 170 167 172 194 200 202 210 213 214 218 215 216 218 217 215 213 218 224 229 232 235 236 241 243 241 241 242 246 256 270 274 278 277 271 256 248 264 272 274 282 282
202 196 190 185 190 185 201 203 209 224 224 226 219 223 226 227 229 228 229 238 252 252 249 250 253 253 251 250 250 250 257 268 275 274 276 272 271 269 276 276 273 274 275
209 217 207 202 209 203 200 212 223 234 230 233 228 224 234 234 235 242 242 249 267 263 266 262 262 260 259 257 253 258 258 265 271 271 273 277 275 276 282 277 276 275 269
210 210 222 221 224 231 226 228 238 237 230 228 236 237 241 248 254 259 262 262 265 275 278 275 266 270 267 263 264 266 265 260 265 270 272 271 276 279 279 274 275 274 262
208 203 218 231 235 239 239 240 239 241 236 240 245 257 257 254 257 262 265 268 272 276 281 275 268 272 275 269 268 268 268 266 266 268 270 271 271 274 276 275 269 270 264
207 206 195 209 228 234 241 245 246 250 250 246 255 258 260 263 262 263 267 270 273 273 275 275 272 271 272 283 278 273 270 269 269 268 268 269 270 271 274 273 267 265 261
217 220 225 224 225 229 237 242 247 251 248 248 242 251 257 260 264 263 266 269 268 268 271 273 272 268 268 270 276 277 279 275 274 271 268 267 269 270 269 269 266 261 258
221 217 210 215 218 222 225 229 236 245 246 245 251 248 249 254 261 265 268 270 269 267 269 270 269 267 265 271 271 271 273 275 274 271 268 267 266 267 267 265 264 261 256
232 229 216 220 224 226 229 235 241 245 248 250 252 259 260 262 264 264 267 266 266 269 271 271 270 270 267 265 267 265 264 267 269 271 266 265 265 265 265 265 262 261 256
223 227 222 224 228 227 228 233 237 242 247 253 254 255 259 262 263 266 265 269 268 272 269 271 269 270 267 269 263 267 256 267 267 269 266 263 264 263 263 262 263 260 256
220 223 230 238 244 247 245 243 243 244 247 249 250 253 257 264 264 263 267 270 268 264 267 271 272 272 271 270 269 262 258 256 267 272 269 265 262 260 261 260 261 263 258
228 241 251 256 256 252 252 253 254 255 256 258 262 262 264 265 264 264 266 269 272 275 273 272 272 272 270 273 271 269 267 263 263 274 268 268 260 256 257 259 260 261 260
227 237 241 242 245 247 250 254 257 261 264 263 263 264 266 265 265 265 265 262 270 275 276 274 281 283 272 276 277 276 273 264 259 257 268 267 267 269 265 260 260 260 257
225 233 238 245 251 255 259 263 264 264 265 265 265 267 268 270 267 268 267 266 261 270 270 269 281 286 289 280 285 280 275 267 274 257 263 270 287 273 273 262 256 255 252
Height
1537 1541 1544 1546 1548 1550 1552 1553 1553 1554 1556 1556 1557 1557 1558 1558 1558 1558 1558 1558 1558 1558 1558 1558 1558 1559 1560 1561 1561 1561 1561 1561 1561 1561 1561 1560 1559 1558 1557 1556 1555 1555 1554
1536 1540 1544 1546 1549 1550 1552 1553 1554 1555 1556 1557 1557 1558 1558 1558 1559 1559 1560 1560 1560 1560 1560 1560 1559 1560 1561 1562 1562 1562 1562 1562 1563 1562 1561 1561 1560 1559 1558 1557 1557 1556 1556
1537 1540 1544 1547 1549 1551 1553 1554 1555 1556 1557 1558 1558 1558 1559 1559 1559 1560 1561 1562 1562 1562 1561 1561 1560 1561 1561 1562 1563 1563 1563 1563 1563 1562 1562 1561 1561 1561 1560 1559 1559 1559 1558
1538 1540 1544 1548 1550 1552 1554 1555 1556 1557 1557 1558 1559 1559 1559 1560 1561 1561 1562 1563 1563 1563 1563 1562 1561 1561 1562 1562 1563 1564 1564 1563 1563 1563 1563 1562 1562 1562 1562 1561 1561 1560 1560
1539 1542 1544 1548 1551 1553 1555 1556 1557 1558 1559 1559 1559 1560 1560 1561 1562 1563 1563 1564 1564 1565 1564 1564 1564 1564 1564 1564 1564 1565 1564 1564 1564 1564 1564 1563 1563 1563 1563 1562 1562 1562 1561
1540 1542 1545 1547 1550 1553 1555 1557 1558 1558 1559 1559 1560 1560 1560 1561 1562 1562 1563 1564 1565 1565 1565 1565 1565 1565 1566 1566 1566 1566 1566 1565 1566 1565 1565 1565 1565 1564 1565 1564 1564 1562 1562
1540 1543 1545 1547 1550 1552 1555 1557 1558 1559 1559 1559 1560 1560 1561 1561 1562 1563 1564 1565 1565 1566 1566 1566 1566 1567 1567 1568 1568 1567 1566 1567 1567 1567 1566 1566 1565 1565 1565 1565 1564 1563 1562
1541 1543 1545 1547 1549 1552 1554 1555 1557 1558 1559 1560 1560 1560 1561 1561 1562 1563 1564 1565 1566 1566 1567 1567 1567 1567 1568 1568 1568 1568 1568 1567 1568 1567 1567 1566 1565 1565 1564 1564 1563 1562 1562
1542 1544 1546 1548 1549 1551 1553 1554 1557 1557 1558 1560 1560 1561 1562 1563 1563 1563 1564 1565 1566 1567 1568 1568 1568 1568 1568 1568 1568 1568 1568 1567 1567 1567 1566 1565 1564 1564 1563 1563 1563 1562 1560
1543 1545 1546 1547 1549 1550 1552 1554 1556 1557 1558 1559 1561 1562 1562 1563 1564 1565 1566 1567 1567 1568 1568 1568 1568 1569 1569 1569 1569 1568 1568 1567 1567 1567 1566 1565 1564 1564 1564 1563 1563 1561 1561
1543 1545 1545 1547 1549 1550 1552 1553 1555 1557 1558 1559 1560 1561 1563 1564 1564 1565 1566 1567 1568 1569 1569 1569 1570 1569 1569 1569 1568 1568 1568 1567 1566 1566 1566 1565 1564 1564 1563 1563 1562 1561 1560
1542 1544 1545 1547 1548 1550 1552 1553 1554 1556 1556 1558 1560 1561 1562 1563 1564 1565 1566 1567 1568 1568 1569 1570 1570 1570 1569 1569 1569 1569 1568 1568 1567 1566 1566 1565 1565 1565 1564 1562 1561 1560 1560
1542 1544 1545 1546 1548 1549 1551 1553 1554 1555 1556 1557 1559 1561 1561 1563 1563 1564 1565 1566 1567 1568 1569 1568 1568 1569 1568 1568 1568 1568 1568 1567 1567 1566 1566 1565 1565 1563 1562 1561 1560 1559 1559
1540 1542 1544 1545 1546 1548 1550 1551 1553 1554 1555 1556 1558 1560 1560 1562 1562 1564 1565 1566 1567 1567 1567 1567 1567 1567 1567 1567 1567 1567 1567 1566 1565 1565 1564 1564 1564 1563 1562 1560 1559 1558 1557
1540 1540 1542 1544 1545 1547 1548 1550 1551 1552 1554 1555 1557 1558 1559 1560 1561 1563 1564 1564 1565 1565 1566 1566 1565 1565 1564 1564 1565 1565 1565 1564 1563 1563 1562 1562 1562 1561 1560 1559 1557 1557 1556
1539 1541 1541 1542 1544 1544 1546 1548 1550 1552 1553 1554 1556 1557 1558 1558 1559 1560 1561 1561 1562 1563 1563 1563 1563 1563 1562 1562 1561 1561 1562 1562 1561 1560 1560 1559 1559 1559 1557 1557 1557 1555 1555
1538 1539 1541 1542 1543 1544 1545 1547 1548 1550 1552 1553 1553 1555 1556 1557 1557 1557 1558 1558 1559 1560 1561 1561 1561 1560 1559 1559 1559 1559 1559 1559 1558 1558 1557 1556 1556 1555 1555 1554 1554 1553 1553
1535 1537 1539 1540 1542 1544 1545 1546 1547 1548 1549 1549 1550 1552 1553 1554 1554 1555 1555 1554 1555 1557 1557 1557 1557 1556 1555 1555 1555 1556 1556 1555 1555 1554 1554 1553 1553 1553 1552 1551 1551 1551 1550
1532 1534 1536 1538 1540 1542 1543 1544 1545 1546 1546 1547 1549 1549 1549 1550 1551 1551 1552 1552 1553 1553 1553 1553 1553 1552 1552 1551 1551 1551 1552 1552 1552 1551 1550 1549 1549 1549 1549 1548 1547 1547 1547
1529 1530 1532 1535 1537 1538 1540 1541 1542 1542 1543 1545 1545 1546 1547 1547 1547 1548 1548 1549 1549 1549 1549 1548 1548 1549 1549 1549 1548 1547 1547 1547 1546 1545 1545 1545 1545 1544 1544 1544 1544 1544 1544
1526 1528 1529 1531 1532 1534 1535 1536 1537 1537 1539 1540 1541 1542 1543 1544 1544 1544 1544 1544 1544 1544 1543 1544 1543 1543 1543 1544 1542 1542 1541 1541 1540 1539 1539 1538 1538 1539 1539 1539 1539 1540 1540
1525 1526 1526 1527 1528 1529 1530 1531 1531 1532 1534 1535 1535 1537 1538 1538 1538 1538 1538 1537 1538 1538 1538 1538 1538 1537 1538 1539 1538 1536 1534 1533 1532 1531 1530 1530 1530 1531 1532 1532 1533 1534 1535
1521 1522 1523 1524 1525 1524 1525 1526 1527 1527 1528 1528 1529 1530 1531 1531 1532 1532 1532 1531 1531 1532 1531 1532 1532 1531 1530 1532 1532 1534 1531 1525 1525 1524 1523 1522 1523 1523 1524 1525 1526 1528 1530
1518 1519 1519 1520 1520 1520 1520 1521 1521 1521 1522 1523 1523 1523 1524 1524 1524 1524 1525 1525 1525 1524 1524 1525 1525 1525 1525 1524 1526 1525 1523 1521 1520 1518 1517 1517 1518 1518 1518 1519 1520 1521 1523
1515 1515 1515 1516 1516 1517 1516 1516 1515 1515 1515 1515 1515 1515 1516 1516 1515 1516 1517 1518 1519 1519 1519 1518 1518 1517 1517 1518 1517 1518 1517 1515 1513 1513 1508 1513 1513 1513 1514 1514 1514 1514 1516
1512 1512 1512 1513 1514 1514 1513 1512 1511 1511 1510 1510 1510 1510 1509 1509 1509 1509 1511 1512 1513 1514 1513 1513 1513 1512 1511 1511 1512 1511 1511 1509 1507 1506 1506 1505 1505 1506 1507 1507 1506 1506 1508